FW7611 Weather Reports


time (UTC)temp
F
wind
direction
speed
knots
gust
knots
rain 1hr
in
rain 24hr
in
rain mn
in
humidity
%
barometer
mb
20260504150111 67 248 0.9 2.6 0.00 0.00 0.00 41 1018.7
20260504081537 43 0 0.0 0.0 0.00 0.00 0.00 84 1018.2
20260504044541 47 0 0.0 0.0 0.00 0.00 0.00 68 1018.4
20260504043040 47 0 0.0 0.0 0.00 0.00 0.00 67 1018.3
20260504041535 48 0 0.0 0.0 0.00 0.00 0.00 68 1018.1
20260504040107 48 0 0.0 0.0 0.00 0.00 0.00 67 1018.1
20260504034541 49 0 0.0 0.0 0.00 0.00 0.00 67 1018.2
20260504033041 49 0 0.0 1.7 0.00 0.00 0.00 67 1018.2
20260504031539 49 0 0.0 1.7 0.00 0.00 0.00 65 1018.1
20260504030036 50 0 0.0 0.0 0.00 0.00 0.00 62 1018.2
20260504024548 50 0 0.0 0.0 0.00 0.00 0.00 60 1018.3
20260504023040 51 0 0.0 0.0 0.00 0.00 0.00 60 1018.2
20260504021540 51 0 0.0 0.9 0.00 0.00 0.00 62 1018.0
20260504020040 51 0 0.0 0.0 0.00 0.00 0.00 59 1017.7
20260504014551 51 0 0.0 1.7 0.00 0.00 0.00 61 1017.5
20260504013036 52 185 0.0 1.7 0.00 0.00 0.00 57 1017.3
20260504011534 52 0 0.0 0.0 0.00 0.00 0.00 57 1017.2
20260504010034 53 0 0.0 0.0 0.00 0.00 0.00 56 1017.1
20260504004542 54 0 0.0 0.0 0.00 0.00 0.00 53 1017.0
20260504003040 55 0 0.0 1.7 0.00 0.00 0.00 52 1016.8
20260504001555 56 0 0.0 0.0 0.00 0.00 0.00 51 1016.7
20260504000039 58 0 0.0 1.7 0.00 0.00 0.00 48 1016.6
20260503234536 59 0 0.0 1.7 0.00 0.00 0.00 44 1016.6
20260503233033 62 211 0.9 2.6 0.00 0.00 0.00 35 1016.7
20260503231535 63 168 0.0 3.5 0.00 0.00 0.00 33 1016.7
20260503230041 63 209 0.0 1.7 0.00 0.00 0.00 32 1016.7
20260503224531 63 240 0.9 5.2 0.00 0.00 0.00 32 1016.9
20260503223036 64 258 1.7 5.2 0.00 0.00 0.00 32 1017.0
20260503221536 64 215 0.9 5.2 0.00 0.00 0.00 31 1017.0
20260503220043 64 262 0.0 6.1 0.00 0.00 0.00 30 1017.2
20260503214541 64 190 0.9 2.6 0.00 0.00 0.00 31 1017.5
20260503213038 64 234 0.0 1.7 0.00 0.00 0.00 30 1017.7
20260503211541 64 296 1.7 5.2 0.00 0.00 0.00 28 1017.7
20260503210037 64 223 0.9 4.3 0.00 0.00 0.00 27 1017.7
20260503204540 64 311 1.7 5.2 0.00 0.00 0.00 25 1017.9
20260503203046 64 211 0.9 6.1 0.00 0.00 0.00 26 1018.0
20260503201541 63 22 0.0 1.7 0.00 0.00 0.00 28 1018.3
20260503200042 64 340 0.9 7.8 0.00 0.00 0.00 27 1018.6
20260503194542 63 330 0.9 5.2 0.00 0.00 0.00 27 1018.7
20260503193042 64 206 2.6 8.7 0.00 0.00 0.00 28 1018.7
20260503191535 63 276 0.9 6.1 0.00 0.00 0.00 29 1018.8
20260503190045 62 311 1.7 5.2 0.00 0.00 0.00 27 1019.1
20260503184541 62 275 1.7 3.5 0.00 0.00 0.00 30 1019.4
20260503183053 62 279 1.7 6.1 0.00 0.00 0.00 32 1019.5
20260503181554 62 257 0.9 1.7 0.00 0.00 0.00 28 1019.8
20260503180041 62 243 0.9 3.5 0.00 0.00 0.00 29 1020.0
20260503174537 62 133 1.7 6.1 0.00 0.00 0.00 29 1020.1
20260503173035 60 273 0.9 3.5 0.00 0.00 0.00 28 1020.3
20260503171540 61 144 0.9 2.6 0.00 0.00 0.00 29 1020.3